GW5911 Weather Reports


Display with metric or nautical units.
time (UTC)temp
F
wind
direction
speed
MPH
gust
MPH
rain 1hr
in
rain 24hr
in
rain mn
in
humidity
%
barometer
mb
20260505122020 38 310 4.0 11.0 0.05 0.27 0.11 88 1013.8
20260505121529 38 27 7.0 11.0 0.06 0.27 0.11 88 1013.7
20260505121020 39 345 6.0 12.0 0.06 0.27 0.11 88 1013.7
20260505120528 39 341 6.0 12.0 0.06 0.27 0.11 89 1013.6
20260505120020 39 37 7.0 12.0 0.06 0.27 0.11 89 1013.7
20260505115529 39 354 6.0 15.0 0.06 0.27 0.11 89 1013.5
20260505115018 39 48 7.0 15.0 0.06 0.27 0.11 89 1013.5
20260505114525 39 45 9.0 14.0 0.05 0.26 0.10 88 1013.4
20260505114017 39 31 6.0 13.0 0.05 0.26 0.10 89 1013.4
20260505113526 40 21 8.0 13.0 0.04 0.25 0.09 89 1013.4
20260505113016 40 8 4.0 13.0 0.05 0.25 0.09 88 1013.3
20260505112524 40 344 7.0 14.0 0.03 0.23 0.07 88 1013.2
20260505112012 40 359 5.0 14.0 0.02 0.22 0.06 88 1013.2
20260505111542 40 349 6.0 13.0 0.02 0.21 0.05 87 1013.2
20260505111031 41 4 6.0 14.0 0.03 0.21 0.05 88 1013.0
20260505110521 41 47 9.0 14.0 0.03 0.21 0.05 87 1013.0
20260505102024 43 14 8.0 14.0 0.03 0.19 0.03 88 1011.8
20260505101533 43 359 8.0 14.0 0.03 0.19 0.03 89 1011.8
20260505101022 43 359 5.0 12.0 0.02 0.18 0.02 89 1011.8
20260505100514 44 354 7.0 11.0 0.02 0.18 0.02 89 1011.7
20260505100026 44 308 5.0 10.0 0.01 0.17 0.01 89 1011.4
20260505095534 44 345 5.0 12.0 0.01 0.17 0.01 89 1011.3
20260505095022 44 316 4.0 11.0 0.00 0.16 0.00 89 1011.6
20260505094550 44 25 3.0 9.0 0.00 0.16 0.00 89 1011.5
20260505094020 44 345 4.0 8.0 0.00 0.16 0.00 88 1011.5
20260505093528 44 332 5.0 8.0 0.00 0.16 0.00 88 1011.4
20260505093017 44 33 4.0 13.0 0.00 0.16 0.00 88 1011.5
20260505092526 44 308 8.0 13.0 0.00 0.16 0.00 88 1011.6
20260505092015 45 347 4.0 13.0 0.00 0.16 0.00 87 1011.6
20260505091524 45 345 6.0 13.0 0.00 0.16 0.00 87 1011.4
20260505091017 45 359 3.0 15.0 0.00 0.16 0.00 86 1011.3
20260505090526 46 330 6.0 16.0 0.00 0.16 0.00 85 1011.2
20260505090014 48 344 8.0 14.0 0.00 0.16 0.00 85 1011.0
20260505085523 49 335 4.0 10.0 0.00 0.16 0.00 85 1010.8
20260505085031 49 4 1.0 7.0 0.00 0.16 0.00 87 1011.0
20260505084542 49 323 2.0 8.0 0.00 0.16 0.00 87 1011.0
20260505084031 49 324 3.0 8.0 0.00 0.16 0.00 87 1011.1
20260505083520 49 354 3.0 4.0 0.00 0.16 0.00 87 1011.2
20260505083030 49 338 0.0 0.0 0.00 0.16 0.00 88 1011.2
20260505082521 49 329 0.0 2.0 0.00 0.16 0.00 88 1011.2
20260505082014 49 329 1.0 2.0 0.00 0.16 0.00 87 1011.2
20260505081522 49 83 0.0 0.0 0.00 0.16 0.00 87 1011.3
20260505081030 49 131 0.0 0.0 0.00 0.16 0.00 88 1011.3
20260505080520 49 131 0.0 0.0 0.00 0.16 0.00 88 1011.3
20260505080029 49 131 0.0 0.0 0.00 0.16 0.00 88 1011.2
20260505075520 49 131 0.0 0.0 0.00 0.16 0.00 88 1011.0
20260505075028 49 131 0.0 0.0 0.00 0.16 0.00 88 1011.1
20260505074537 49 131 0.0 0.0 0.00 0.16 0.00 88 1011.1
20260505074025 49 131 0.0 3.0 0.00 0.16 0.00 88 1011.1
20260505073517 49 168 0.0 3.0 0.00 0.16 0.00 88 1011.1
20260505073027 49 125 0.0 2.0 0.00 0.16 0.00 89 1011.3
20260505072516 49 216 1.0 2.0 0.00 0.16 0.00 89 1011.3
20260505072024 49 137 0.0 0.0 0.00 0.16 0.00 88 1011.3
20260505071551 49 166 0.0 0.0 0.00 0.16 0.00 88 1011.5
20260505071021 49 165 0.0 0.0 0.00 0.16 0.00 88 1011.6
20260505070530 49 157 0.0 1.0 0.00 0.16 0.00 88 1011.8
20260505070022 49 139 0.0 3.0 0.00 0.16 0.00 88 1011.7
20260505065530 49 139 0.0 5.0 0.00 0.16 0.00 88 1011.5
20260505065020 49 160 3.0 5.0 0.00 0.16 0.00 88 1011.6
20260505064513 49 113 1.0 4.0 0.00 0.16 0.00 88 1011.6
20260505064022 49 210 0.0 3.0 0.00 0.16 0.00 88 1011.6
20260505063532 49 241 1.0 5.0 0.00 0.16 0.00 88 1011.6
20260505063020 49 158 1.0 5.0 0.00 0.16 0.00 88 1011.6
20260505062529 49 132 0.0 3.0 0.00 0.16 0.00 88 1011.8
20260505062020 49 172 1.0 5.0 0.00 0.16 0.00 88 1011.7
20260505061528 49 155 1.0 5.0 0.00 0.16 0.00 88 1011.8
20260505061037 49 155 1.0 3.0 0.00 0.16 0.00 87 1011.7
20260505060524 49 191 1.0 3.0 0.00 0.16 0.00 88 1011.8
20260505060014 49 222 0.0 4.0 0.00 0.16 0.16 87 1011.7
20260505055527 49 236 2.0 5.0 0.00 0.16 0.16 87 1011.8
20260505055015 49 216 1.0 6.0 0.00 0.16 0.16 87 1011.9
20260505054524 49 226 3.0 6.0 0.01 0.16 0.16 87 1012.2
20260505054032 49 193 1.0 4.0 0.01 0.16 0.16 88 1011.7
20260505053521 49 166 1.0 3.0 0.01 0.16 0.16 88 1011.5
20260505053050 49 191 0.0 3.0 0.01 0.16 0.16 87 1011.6
20260505052518 49 189 1.0 5.0 0.01 0.16 0.16 87 1011.5
20260505052027 49 149 0.0 4.0 0.02 0.16 0.16 87 1011.6
20260505051536 49 220 1.0 4.0 0.03 0.16 0.16 87 1011.6
20260505051024 49 168 1.0 3.0 0.03 0.16 0.16 87 1011.8
20260505050552 49 160 0.0 2.0 0.04 0.16 0.16 86 1011.8
20260505041522 49 90 0.0 0.0 0.11 0.13 0.13 85 1012.4
20260505041030 49 12 0.0 0.0 0.12 0.13 0.13 84 1012.3
20260505040525 49 12 0.0 0.0 0.11 0.12 0.12 84 1012.3
20260505040014 49 4 0.0 3.0 0.10 0.11 0.11 84 1012.3
20260505035522 49 322 1.0 3.0 0.10 0.11 0.11 83 1012.2
20260505035011 50 118 0.0 5.0 0.09 0.10 0.10 83 1012.3
20260505034522 50 347 2.0 6.0 0.09 0.10 0.10 82 1012.2
20260505034011 50 292 4.0 11.0 0.08 0.09 0.09 81 1012.2
20260505033522 50 324 5.0 11.0 0.07 0.08 0.08 79 1012.3
20260505033051 51 343 5.0 9.0 0.06 0.07 0.07 77 1012.3
20260505032520 52 354 2.0 9.0 0.05 0.06 0.06 74 1012.1
20260505032049 53 354 4.0 12.0 0.04 0.05 0.05 70 1011.9
20260505031521 54 301 6.0 12.0 0.01 0.02 0.02 67 1011.7
20260505031030 54 4 6.0 11.0 0.00 0.01 0.01 64 1011.6
20260505030519 55 52 2.0 5.0 0.00 0.01 0.01 64 1011.5
20260505030029 55 30 2.0 8.0 0.00 0.01 0.01 63 1011.2
20260505025540 55 26 2.0 8.0 0.00 0.01 0.01 63 1011.0
20260505025027 55 345 2.0 6.0 0.00 0.01 0.01 63 1010.9
20260505024516 55 315 2.0 8.0 0.00 0.01 0.01 63 1010.7
20260505024044 55 4 3.0 10.0 0.00 0.01 0.01 63 1010.6
20260505023552 55 17 3.0 10.0 0.00 0.01 0.01 62 1010.6
20260505023022 55 349 5.0 12.0 0.00 0.01 0.01 62 1010.5
20260505022530 56 4 7.0 12.0 0.00 0.01 0.01 61 1010.2
20260505022019 56 73 0.0 1.0 0.00 0.01 0.01 60 1010.1
20260505021512 55 4 0.0 1.0 0.00 0.01 0.01 62 1010.1
20260505021022 55 4 0.0 1.0 0.00 0.01 0.01 62 1010.1
20260505020531 55 23 0.0 0.0 0.00 0.01 0.01 60 1010.1
20260505020022 55 23 0.0 1.0 0.00 0.01 0.01 59 1010.4
20260505015530 55 23 0.0 1.0 0.00 0.01 0.01 60 1010.4
20260505015020 55 23 0.0 4.0 0.00 0.01 0.01 60 1010.4
20260505014528 55 19 1.0 4.0 0.00 0.01 0.01 62 1010.0
20260505014021 55 66 2.0 4.0 0.01 0.01 0.01 64 1009.9
20260505013513 55 77 2.0 4.0 0.01 0.01 0.01 64 1009.7
20260505013023 55 91 2.0 3.0 0.01 0.01 0.01 66 1009.8
20260505012531 55 29 0.0 3.0 0.01 0.01 0.01 66 1009.9
20260505012019 55 29 0.0 3.0 0.01 0.01 0.01 67 1009.9
20260505011528 55 62 2.0 3.0 0.01 0.01 0.01 66 1009.7
20260505011019 55 23 0.0 2.0 0.01 0.01 0.01 67 1009.7
20260505010528 55 77 0.0 3.0 0.01 0.01 0.01 65 1009.9
20260505010019 56 58 2.0 4.0 0.01 0.01 0.01 63 1009.9
20260505005548 56 159 2.0 7.0 0.01 0.01 0.01 60 1009.9
20260505005015 57 144 3.0 10.0 0.01 0.01 0.01 56 1010.0
20260505004523 58 220 7.0 11.0 0.01 0.01 0.01 53 1010.5
20260505004016 60 222 4.0 9.0 0.00 0.00 0.00 54 1010.5
20260505003545 61 185 5.0 9.0 0.00 0.00 0.00 46 1010.3
20260505003012 61 335 2.0 10.0 0.00 0.00 0.00 41 1010.2
20260505002520 61 345 4.0 12.0 0.00 0.00 0.00 40 1010.0
20260505002029 61 22 4.0 11.0 0.00 0.00 0.00 40 1009.9
20260505001540 61 333 6.0 12.0 0.00 0.00 0.00 40 1009.7
20260505001028 62 331 8.0 12.0 0.00 0.00 0.00 39 1009.5
20260505000517 62 359 6.0 10.0 0.00 0.00 0.00 38 1009.4
20260505000027 63 332 4.0 9.0 0.00 0.00 0.00 37 1009.2
20260504235515 63 289 4.0 6.0 0.00 0.00 0.00 36 1009.2
20260504235024 63 314 2.0 8.0 0.00 0.00 0.00 36 1009.0
20260504234516 63 339 3.0 10.0 0.00 0.00 0.00 35 1009.0
20260504234025 63 301 6.0 10.0 0.00 0.00 0.00 35 1009.0
20260504233514 63 327 4.0 10.0 0.00 0.00 0.00 35 1008.8
20260504233044 63 354 5.0 10.0 0.00 0.00 0.00 34 1008.9
20260504232512 63 354 4.0 6.0 0.00 0.00 0.00 34 1008.9
20260504232022 63 341 3.0 13.0 0.00 0.00 0.00 35 1008.5
20260504231530 63 328 5.0 16.0 0.00 0.00 0.00 35 1008.5
20260504231021 64 8 10.0 16.0 0.00 0.00 0.00 34 1008.5
20260504230530 64 327 5.0 14.0 0.00 0.00 0.00 33 1008.4
20260504230025 65 38 4.0 14.0 0.00 0.00 0.00 34 1008.2
20260504225513 65 330 5.0 13.0 0.00 0.00 0.00 33 1008.3
20260504225022 65 330 5.0 13.0 0.00 0.00 0.00 32 1008.1
20260504224531 65 359 6.0 13.0 0.00 0.00 0.00 31 1008.1
20260504224022 65 320 7.0 14.0 0.00 0.00 0.00 31 1008.1
20260504223530 65 347 8.0 14.0 0.00 0.00 0.00 31 1008.0
20260504223042 65 15 6.0 15.0 0.00 0.00 0.00 31 1008.0
20260504222530 64 8 7.0 19.0 0.00 0.00 0.00 32 1007.9
20260504222021 65 299 12.0 19.0 0.00 0.00 0.00 32 1008.0
20260504221513 65 342 5.0 17.0 0.00 0.00 0.00 31 1007.8
20260504221022 65 289 9.0 17.0 0.00 0.00 0.00 31 1007.9
20260504220512 65 331 7.0 18.0 0.00 0.00 0.00 31 1007.9
20260504220021 65 349 9.0 18.0 0.00 0.00 0.00 31 1007.5
20260504215549 65 302 8.0 22.0 0.00 0.00 0.00 31 1007.5
20260504215019 65 35 13.0 22.0 0.00 0.00 0.00 30 1007.4
20260504214528 67 354 8.0 21.0 0.00 0.00 0.00 29 1007.3
20260504214019 68 12 7.0 14.0 0.00 0.00 0.00 24 1007.3
20260504213528 68 27 5.0 13.0 0.00 0.00 0.00 24 1007.2
20260504213018 68 95 6.0 11.0 0.00 0.00 0.00 23 1007.4
20260504212530 68 92 5.0 13.0 0.00 0.00 0.00 23 1007.3
20260504212019 68 15 4.0 13.0 0.00 0.00 0.00 23 1007.4
20260504211528 68 4 7.0 11.0 0.00 0.00 0.00 24 1007.5
20260504211018 68 16 5.0 11.0 0.00 0.00 0.00 23 1007.6
20260504210526 68 8 5.0 12.0 0.00 0.00 0.00 24 1007.7
20260504210016 69 4 7.0 12.0 0.00 0.00 0.00 23 1007.8
20260504205523 69 246 7.0 12.0 0.00 0.00 0.00 23 1007.8
20260504205012 69 302 7.0 15.0 0.00 0.00 0.00 24 1007.7
20260504204522 69 22 8.0 15.0 0.00 0.00 0.00 24 1007.8
20260504204015 68 341 7.0 15.0 0.00 0.00 0.00 25 1007.8
20260504203524 68 344 7.0 15.0 0.00 0.00 0.00 25 1007.8
20260504203034 67 338 8.0 16.0 0.00 0.00 0.00 25 1007.8
20260504202521 68 348 9.0 16.0 0.00 0.00 0.00 25 1007.9
20260504202028 67 9 5.0 13.0 0.00 0.00 0.00 25 1008.0
20260504201516 67 324 5.0 15.0 0.00 0.00 0.00 25 1008.0
20260504201025 67 35 3.0 22.0 0.00 0.00 0.00 24 1007.9
20260504200513 66 336 8.0 22.0 0.00 0.00 0.00 26 1007.8
20260504200023 65 300 10.0 20.0 0.00 0.00 0.00 27 1008.0
20260504195512 65 335 14.0 20.0 0.00 0.00 0.00 28 1008.1
20260504195042 65 354 9.0 15.0 0.00 0.00 0.00 27 1008.3
20260504194514 65 354 7.0 15.0 0.00 0.00 0.00 28 1008.4
20260504194022 65 316 8.0 13.0 0.00 0.00 0.00 28 1008.9
20260504193531 65 29 6.0 12.0 0.00 0.00 0.00 28 1009.0
20260504193022 65 266 1.0 12.0 0.00 0.00 0.00 29 1009.1
20260504192531 66 239 7.0 16.0 0.00 0.00 0.00 28 1009.2
20260504192021 67 188 7.0 16.0 0.00 0.00 0.00 30 1009.0
20260504191530 68 217 6.0 12.0 0.00 0.00 0.00 24 1008.7
20260504191020 69 203 6.0 11.0 0.00 0.00 0.00 23 1008.4
20260504190529 70 139 2.0 7.0 0.00 0.00 0.00 21 1008.2
20260504190024 70 206 2.0 3.0 0.00 0.00 0.00 20 1008.2
20260504185513 70 341 1.0 8.0 0.00 0.00 0.00 19 1008.1
20260504185022 70 348 3.0 8.0 0.00 0.00 0.00 20 1007.9
20260504184531 70 34 4.0 11.0 0.00 0.00 0.00 19 1008.0
20260504184022 70 354 5.0 11.0 0.00 0.00 0.00 21 1007.8
20260504183531 70 354 6.0 11.0 0.00 0.00 0.00 21 1007.8
20260504183042 71 38 5.0 10.0 0.00 0.00 0.00 20 1007.8
20260504182530 71 354 5.0 12.0 0.00 0.00 0.00 21 1007.8
20260504182019 71 287 5.0 9.0 0.00 0.00 0.00 21 1007.8
20260504181512 71 48 2.0 13.0 0.00 0.00 0.00 21 1007.8
20260504181041 72 359 5.0 13.0 0.00 0.00 0.00 21 1007.8
20260504180529 72 156 2.0 6.0 0.00 0.00 0.00 21 1007.9
20260504180019 72 324 2.0 7.0 0.00 0.00 0.00 22 1008.0
20260504175527 71 241 2.0 9.0 0.00 0.00 0.00 21 1007.9
20260504175016 71 341 3.0 9.0 0.00 0.00 0.00 21 1008.1
20260504174545 72 331 3.0 9.0 0.00 0.00 0.00 20 1008.3
20260504174033 71 344 5.0 11.0 0.00 0.00 0.00 21 1008.2
20260504173522 71 354 7.0 11.0 0.00 0.00 0.00 20 1008.5
20260504173011 72 340 4.0 10.0 0.00 0.00 0.00 20 1008.5
20260504172522 72 10 5.0 11.0 0.00 0.00 0.00 21 1008.6
20260504172013 71 42 4.0 11.0 0.00 0.00 0.00 21 1008.5
20260504171524 72 321 4.0 9.0 0.00 0.00 0.00 21 1008.5
20260504171012 71 88 2.0 10.0 0.00 0.00 0.00 22 1008.6
20260504170521 71 297 6.0 10.0 0.00 0.00 0.00 20 1008.7
20260504151040 64 222 2.0 5.0 0.00 0.00 0.00 27 1009.8
20260504150528 64 147 2.0 5.0 0.00 0.00 0.00 27 1009.8
20260504141048 55 204 3.0 6.0 0.00 0.00 0.00 38 1010.0
20260504140534 55 171 3.0 5.0 0.00 0.00 0.00 38 1009.9
20260504130524 52 187 1.0 6.0 0.00 0.00 0.00 42 1009.9